Location: Sweet Grass
(48.9965°N, 111.9649°W)
Time: 11:09:02
(UTC+00:00)

DX 1 - Visible Passes

Search period start: 02 April 2023 00:00
Search period end: 12 April 2023 00:00
Orbit: 614 x 627 km, 98.4° (Epoch: 02 April)

Date Brightness Start Highest point End Pass type
(mag) Time Alt. Az. Time Alt. Az. Time Alt. Az.
02 Apr ? 05:34:55 10° NNE 05:35:51 16° NNE 05:35:51 16° NNE visible
02 Apr ? 07:11:41 10° NNW 07:13:02 16° NNW 07:13:02 16° NNW visible
03 Apr ? 05:52:18 10° NNE 05:53:38 20° NNE 05:53:38 20° NNE visible
03 Apr ? 07:29:43 10° NNW 07:30:50 13° NW 07:30:50 13° NW visible
04 Apr ? 06:09:47 10° N 06:11:26 23° N 06:11:26 23° N visible
04 Apr ? 07:48:20 10° NW 07:48:37 10° NW 07:48:37 10° NW visible
05 Apr ? 06:27:21 10° N 06:29:13 24° N 06:29:13 24° N visible
06 Apr ? 05:09:04 10° NE 05:09:48 14° NE 05:09:48 14° NE visible
06 Apr ? 06:44:58 10° N 06:46:59 23° NNW 06:46:59 23° NNW visible
07 Apr ? 05:26:15 10° NNE 05:27:35 18° NE 05:27:35 18° NE visible
07 Apr ? 07:02:43 10° N 07:04:46 21° NNW 07:04:46 21° NNW visible
08 Apr ? 05:43:34 10° NNE 05:45:21 24° NNE 05:45:21 24° NNE visible
08 Apr ? 07:20:35 10° NNW 07:22:32 17° NW 07:22:32 17° NW visible
09 Apr ? 06:00:58 10° NNE 06:03:06 28° NNE 06:03:06 28° NNE visible
09 Apr ? 07:38:44 10° NNW 07:40:17 13° NW 07:40:17 13° NW visible
10 Apr ? 04:43:38 10° NE 04:43:40 10° NE 04:43:40 10° NE visible
10 Apr ? 06:18:27 10° N 06:20:52 32° N 06:20:52 32° N visible
11 Apr ? 05:00:26 10° NE 05:01:25 14° NE 05:01:25 14° NE visible
11 Apr ? 06:36:01 10° N 06:38:37 31° NNW 06:38:37 31° NNW visible
